Twin Bridges, CA

2:59 AM PDT on August 27, 2016 (GMT -0700)
Lake Tahoe

Weather History for KTVL - May, 2013

Change the Weather History Date:

Monday, May 13, 2013

  Actual Average Record
Temperature  
Mean Temperature 58 °F 47 °F  
Max Temperature 75 °F 63 °F 78 °F (1988)
Min Temperature 40 °F 32 °F 23 °F (1943)
Degree Days  
Heating Degree Days 7 18  
Month to date heating degree days 185 251  
Since 1 July heating degree days 6569 7141  
Cooling Degree Days 0 0  
Month to date cooling degree days 0 0  
Year to date cooling degree days 0 0  
Growing Degree Days 6 (Base 50)    
Moisture  
Dew Point 32 °F    
Average Humidity 49    
Maximum Humidity 79    
Minimum Humidity 19    
Precipitation  
Precipitation 0.00 in - 0.25 in (1941)
Month to date precipitation 1.57  
Year to date precipitation 4.51  
Sea Level Pressure  
Sea Level Pressure 30.13 in    
Wind  
Wind Speed 3 mph (SSW)    
Max Wind Speed 23 mph    
Max Gust Speed 30 mph    
Visibility 10 miles    
Events      
T = Trace of Precipitation, MM = Missing Value Source: NWS Daily Summary

Daily Weather History Graph

Daily Weather History Graph

Search for Another Location

Airport or City:

Trip Planner

Search our weather history database for the weather conditions in past years. The results will help you decide how hot, cold, wet, or windy it might be!

Date:

Astronomy

May. 13, 2013 Rise Set
Actual Time 5:48 AM PDT 8:04 PM PDT
Civil Twilight 5:19 AM PDT 8:34 PM PDT
Nautical Twilight 4:42 AM PDT 9:11 PM PDT
Astronomical Twilight 4:02 AM PDT 9:51 PM PDT
Moon 8:39 AM PDT (5/13) 11:16 PM PDT (5/13)
Length of Visible Light 15h 15m
Length of Day
14h 15m
Waxing Crescent, 13% of the Moon is Illuminated
May 13
Waxing Crescent
May 17
First Quarter
May 24
Full
May 31
Last Quarter
Jun 8
New

Hourly Weather History & Observations

Time (PDT) Temp. Windchill Dew Point Humidity Pressure Visibility Wind Dir Wind Speed Gust Speed Precip Events Conditions
12:53 AM 46.9 °F - 37.0 °F 68% 30.17 in 10.0 mi Calm Calm - N/A   Clear
1:53 AM 45.0 °F - 36.0 °F 71% 30.16 in 10.0 mi Calm Calm - N/A   Clear
2:53 AM 43.0 °F 41.3 °F 35.1 °F 74% 30.15 in 10.0 mi South 3.5 mph - N/A   Clear
3:53 AM 41.0 °F 39.0 °F 34.0 °F 76% 30.15 in 10.0 mi South 3.5 mph - N/A   Clear
4:53 AM 41.0 °F 39.0 °F 34.0 °F 76% 30.15 in 10.0 mi SSW 3.5 mph - N/A   Clear
5:53 AM 39.9 °F - 33.1 °F 77% 30.17 in 10.0 mi Calm Calm - N/A   Clear
6:53 AM 43.0 °F - 34.0 °F 71% 30.19 in 10.0 mi Calm Calm - N/A   Clear
7:53 AM 51.1 °F - 39.9 °F 66% 30.18 in 10.0 mi Calm Calm - N/A   Clear
8:53 AM 68.0 °F - 27.0 °F 21% 30.15 in 10.0 mi South 8.1 mph - N/A   Clear
9:53 AM 70.0 °F - 27.0 °F 20% 30.14 in 10.0 mi South 11.5 mph - N/A   Clear
10:53 AM 72.0 °F - 28.9 °F 20% 30.14 in 10.0 mi South 15.0 mph 21.9 mph N/A   Clear
11:53 AM 72.0 °F - 28.9 °F 20% 30.15 in 10.0 mi South 10.4 mph 26.5 mph N/A   Clear
1:53 PM 73.9 °F - 28.9 °F 19% 30.14 in 10.0 mi SW 8.1 mph 20.7 mph N/A   Clear
2:53 PM 73.9 °F - 30.0 °F 20% 30.14 in 10.0 mi SW 10.4 mph 24.2 mph N/A   Clear
3:53 PM 73.0 °F - 30.0 °F 20% 30.13 in 10.0 mi SSW 5.8 mph 24.2 mph N/A   Clear
5:53 PM 71.1 °F - 28.9 °F 21% 30.10 in 10.0 mi Variable 3.5 mph - N/A   Clear
6:53 PM 69.1 °F - 27.0 °F 21% 30.09 in 10.0 mi SSW 9.2 mph - N/A   Clear
7:53 PM 64.0 °F - 28.9 °F 27% 30.08 in 10.0 mi Variable 5.8 mph - N/A   Clear
8:53 PM 57.0 °F - 33.1 °F 40% 30.05 in 10.0 mi Calm Calm - N/A   Clear
9:53 PM 54.0 °F - 35.1 °F 49% 30.06 in 10.0 mi Calm Calm - N/A   Clear
10:53 PM 51.1 °F - 35.1 °F 54% 30.05 in 10.0 mi Calm Calm - N/A   Clear
11:53 PM 48.9 °F - 35.1 °F 59% 30.05 in 10.0 mi SSW 3.5 mph - N/A   Clear